Location: Rancho Del Sol Observatory
(38.7214°N, 120.6350°W)
Time: 03:11:05
(UTC-08:00)

Courier 1B Rocket - Pass Details

Date: 04 February 2020
Orbit: 920 x 1202 km, 28.2° (Epoch: 25 February)

Event Time Altitude Azimuth Distance (km) Brightness Sun altitude
Rises 07:10:22 0° 231° (SW) 4,053 7.9 0.0°
Reaches altitude 10° 07:13:35 10° 220° (SW) 3,110 7.5 0.6°
Maximum altitude 07:20:03 29° 164° (SSE) 2,036 7.3 1.7°
Drops below altitude 10° 07:26:29 10° 108° (ESE) 3,108 10.2 2.9°
Sets 07:29:42 0° 98° (E) 4,049 10.1 3.5°
